Hauptseite
METAR-TAF:

METAR-TAF

Flughäfen :

Le Luc, Frankreich

Flughafen Le Luc-Le Cannet

Breite: 43-23N, Länge: 006-23E, Höhe: 80 m

Beobachtung

Neuester Wetterbericht von vor 24 Minuten, um 21:30 UTC
Wind 3 kt aus Ost/Südost
Temperatur 5°C
Luftfeuchtigkeit 87%
Luftdruck 1007 hPa
Sichtweite 10 km oder mehr
Durchbrochene Bewölkung in der Höhe von 1900 ft
Durchbrochene Bewölkung in der Höhe von 2700 ft
Geschlossene Wolkendecke in der Höhe von 3800 ft
Leichtregen

METAR: LFMC 252130Z AUTO 12003KT 9999 -RA BKN019 BKN027 OVC038 05/03 Q1007

Zeit: 22:54 (21:54 UTC)


TAF: fehlend

Wetterbeobachtungen und Prognosen von mehr als 4000 Flughäfen (METAR und TAF Bericht).

Die verfügbaren Stationen werden durch gelbe und rote Markierungen auf der Karte dargestellt.

Führen Sie die Maus auf sie, um den Namen der Station zu sehen.

Darauf klicken, um die Beobachtung von Wetterbeobachtungen und Prognosen zu sehen.

Um die Karte zu ändern : klicken Sie auf den grünen Tasten mit einem schwarzen Kreuz Zum Vergrößern, auf den grünen Button mit einem Gedankenstrich zu verkleinern, oder auf die grünen Pfeile für benachbarte Karten.


METAR-TAF: